Погода в Махкетах

Россия / Чеченская Республика     42°57′44″N   45°54′24″E
темп.,
°C
ветер,
м/с
пор.,
м/с
влажн.,
%
обл.,
%
осадки,
мм/ч
давл.,
гПа
погр.,
м
18 января, пн
пн1800:00+1св119090 0.0 100490
03:00+1с128595 0.0 1003123
06:00−1сз2397100 0.0 1006165
09:00−1з2395100 0.3 1008192
12:00+3зсз257093 0.3 1009717
15:000с119195 0.5 1009168
18:00−2ссз2397100 1.3 1012189
21:00−3зсз2494100 3.1 1013381
19 января, вт
вт1900:00−5сз2387100 0.5 1016312
03:00−5юз1286100 1.2 1017240
06:00−6сз239499 0.4 1020217
09:00−5сз1287100 1.1 1021352
12:00−2с116986 0.1 1020547
15:00−2св126584 0.3 1018622
18:00−5юв1274100 0.0 102124
21:00−6ю117772 0.1 102223
20 января, ср
ср2000:00−7юз128126 0.0 102231
03:00−8зюз118624 0.0 102232
06:00−7ююз118988 0.1 102374
09:00−6с118794 0.6 1024264
12:00−5с2284100 0.2 1023432
15:00−5с2386100 0.8 1022395
18:00−7ссз1195100 0.4 1025104
21:00−7з1195100 0.7 102674
21 января, чт
чт2100:00−8з1196100 0.3 102782
03:00−8ююз118999 0.5 102845
06:00−9ююз228272 0.0 102922
09:00−6ююз236177 0.0 1031154
12:00−1з3944100 0.0 10301791
15:00−1сз2645100 0.0 10291161
18:00−3ююз1173100 0.1 103241
21:00−3ююз2280100 0.2 103349
22 января, пт
пт2200:00−3ю227299 0.0 103424
03:00−4ю236364 0.0 103324
06:00−4ююв22560 0.0 103323
09:000ююв12490 0.0 103358
12:00+4св11440 0.0 1030359
15:00+4ссв11540 0.0 1028231
18:00−1ююв22600 0.0 102922
21:00−1ююв22490 0.0 102923